Hourly Weather Roundup
Issued by NWS Central Illinois

Home | Current Version | Previous Version | Text Only | Print | Product List | Glossary On
Versions: 1 2 3 4 5 6 7 8 9 10 11 12 13 14 15 16 17 18 19 20 21 22 23 24 25 26 27 28 29 30 31 32 33 34 35 36 37 38 39 40 41 42 43 44 45 46 47 48 49 50
000
NZUS43 KILX 011810
HWRILX

AREA WEATHER ROUNDUP
NATIONAL WEATHER SERVICE, LINCOLN IL
1200 PM CST SUN FEB 01 2015


CITY           SKY/WX    TMP DP  RH WIND       PRES   REMARKS
BLOOMINGTON    LGT SNOW  33  32  96 SE3       29.69F VSB 3/4
6HR MIN TEMP:  32; 6HR MAX TEMP:  33; 6HR PCP:  0.20;

CHAMPAIGN      LGT SNOW  34  32  92 SE9       29.67F FOG     WCI  27
6HR MIN TEMP:  32; 6HR MAX TEMP:  34; 6HR PCP:  0.07;

DECATUR        LGT RAIN  34  33  96 S7        29.67F FOG     WCI  28
6HR MIN TEMP:  33; 6HR MAX TEMP:  35; 6HR PCP:  0.15;

FLORA          CLOUDY    37  37 100 SE6       29.68F FOG     WCI  33
6HR MIN TEMP:  34; 6HR MAX TEMP:  37; 6HR PCP:  0.42;

GALESBURG      LGT SNOW  32  32 100 NE14      29.71F WCI  22
JACKSONVILLE   SNOW      35  33  94 CALM      29.67F VSB 1/2
6HR MIN TEMP:  34; 6HR MAX TEMP:  35; 6HR PCP:  0.31;

LACON          LGT SNOW  32  31  95 E8        29.73F WCI  25
6HR MIN TEMP:  32; 6HR MAX TEMP:  33; 6HR PCP:  0.19;

LAWRENCEVILLE  CLOUDY    40  39  97 S10       29.71F FOG     WCI  33
6HR MIN TEMP:  35; 6HR MAX TEMP:  40; 6HR PCP:  0.45;

LITCHFIELD     LGT RAIN  35  34  96 S8        29.67F WCI  28
$$


CITY           SKY/WX    TMP DP  RH WIND       PRES   REMARKS
LINCOLN        SNOW      34  33  96 CALM      29.69F VSB 1/2
6HR MIN TEMP:  34; 6HR MAX TEMP:  35; 6HR PCP:  0.17;

MACOMB         RAIN      33  33 100 NE9       29.72F WCI  25
MATTOON        LGT RAIN  35  33  92 SE10      29.65F FOG     WCI  27
6HR MIN TEMP:  32; 6HR MAX TEMP:  35; 6HR PCP:  0.16;

MT CARMEL AP   DRIZZLE   43  37  81 SE9       29.70F
OLNEY-NOBLE AP CLOUDY    36  36 100 CALM      29.68F FOG
PARIS          CLOUDY    34  33  99 SE13      29.69F FOG     WCI  25
6HR MIN TEMP:  32; 6HR MAX TEMP:  34; 6HR PCP:  0.08;

PEORIA         SNOW      34  32  92 NE6       29.70F VSB 1/4 WCI  29
6HR MIN TEMP:  34; 6HR MAX TEMP:  34; 6HR PCP:  0.34;

PONTIAC        LGT SNOW  34  33  98 E14       29.71F VSB 3/4 WCI  24
RANTOUL        LGT SNOW  35  33  95 SE7       29.68F WCI  29
6HR MIN TEMP:  34; 6HR MAX TEMP:  35; 6HR PCP:  0.11;

ROBINSON       CLOUDY    37  36  99 SE7       29.72F FOG     WCI  31
6HR MIN TEMP:  33; 6HR MAX TEMP:  37; 6HR PCP:  0.34;

SPRINGFIELD    SNOW      34  32  92 CALM      29.68F VSB 1/2
6HR MIN TEMP:  33; 6HR MAX TEMP:  34; 6HR PCP:  0.18;

TAYLORVILLE    LGT RAIN  34  32  93 S6        29.67F WCI  29
$$

...REGIONAL REPORTS...


CITY           SKY/WX    TMP DP  RH WIND       PRES   REMARKS
CHICAGO O`HARE SNOW      26  24  92 NE20G26   29.82F VSB 1/2 WCI  12
KANKAKEE       LGT SNOW  33  32  96 E12       29.74F WCI  24
MOLINE         SNOW      27  23  85 NE18G25   29.78F VSB 1/2 WCI  14
MOUNT VERNON   CLOUDY    41  37  87 S7        29.68F
PITTSFIELD     RAIN      34  33  96 CALM      29.68F
QUINCY         LGT SNOW  34  32  92 N6        29.68F FOG     WCI  29
ROCKFORD       SNOW      24  20  84 NE23G38   29.86F VSB 1/2 WCI   9
$$


CITY           SKY/WX    TMP DP  RH WIND       PRES   REMARKS
BURLINGTON     LGT SNOW  33  32  96 N13       29.72F VSB 1   WCI  24
CEDAR RAPIDS   SNOW      20  18  92 NE24G36   29.85F VSB 1/4 WCI   3
DES MOINES     SNOW      22  18  85 NE25G32   29.90R VSB 1/2 WCI   5
KIRKSVILLE     LGT SNOW  34  33  96 N9        29.70F VSB 3/4 WCI  27
OTTUMWA        LGT SNOW  27  24  89 NE17G31   29.78S VSB 3/4 WCI  14
ST LOUIS       LGT RAIN  40  37  89 SW7       29.67F FOG
$$


CITY           SKY/WX    TMP DP  RH WIND       PRES   REMARKS
TERRE HAUTE    CLOUDY    34  33  96 SE7       29.71F FOG     WCI  28
EVANSVILLE     LGT RAIN  44  41  89 S8        29.74F FOG
INDIANAPOLIS   LGT RAIN  31  30  96 E8        29.74F FOG     WCI  23
LAFAYETTE      LGT SNOW  32  31  96 E8        29.73F FOG     WCI  25
MADISON        SNOW      15  11  83 NE25G36   29.99S VSB 1/2 WCI  -4
MILWAUKEE      SNOW      23  19  85 NE28G35   29.97F VSB 1/4 WCI   6
$$





USA.gov is the U.S. government's official web portal to all federal, state and local government web resources and services.